Tracking 30107 objects as of 19-Jan-2025
HD Live streaming from Space Station
objects crossing your sky now

SL-14 DEB

Track SL-14 DEB now!
10-day predictions


NORAD ID: 26028
Int'l Code: 1991-068AP
Perigee: 1,472.1 km
Apogee: 1,505.9 km
Inclination: 82.7 °
Period: 115.6 minutes
Semi major axis: 7859 km
RCS: 0.0352 m2 (small)
Launch date: September 28, 1991
Source: Commonwealth of Independent States (former USSR) (CIS)
Launch site: PLESETSK MISSILE AND SPACE COMPLEX (PKMTR)

Note: This is SATELLITE DEBRIS
Your satellite tracking list
Your tracking list is empty




NASA's NSSDC Master Catalog

Two Line Element Set (TLE):
1 26028U 91068AP  25018.56551906  .00000174  00000-0  11406-2 0  9991
2 26028  82.6939 237.8364 0021538 216.0955 171.6533 12.45863173169919
Source of the keplerian elements: AFSPC